Location: Unspecified
(0.0000°N, 0.0000°E)
Time: 23:29:41
(UTC+00:00)

N. Korean satellite - Visible Passes

Search period start: 01 October 2022 00:00
Search period end: 11 October 2022 00:00
Orbit: 426 x 468 km, 97.3° (Epoch: 01 October)

Date Brightness Start Highest point End Pass type
(mag) Time Alt. Az. Time Alt. Az. Time Alt. Az.
01 Oct 6.4 05:03:36 10° N 05:06:47 54° WNW 05:10:02 10° SSW visible
02 Oct 8.5 04:28:13 10° NE 04:31:05 28° ESE 04:33:59 10° SSE visible
03 Oct 7.6 05:25:11 10° NNW 05:27:47 22° W 05:30:25 10° SW visible
04 Oct 6.5 04:48:43 10° NNE 04:51:59 74° ESE 04:55:18 10° S visible
05 Oct 9.5 04:14:05 10° ENE 04:16:11 16° ESE 04:18:18 10° SE visible
06 Oct 6.7 05:09:38 10° N 05:12:44 41° WNW 05:15:55 10° SSW visible
07 Oct 8.0 04:33:48 10° NNE 04:36:51 36° ESE 04:39:57 10° S visible
09 Oct 6.3 04:54:05 10° N 04:57:23 87° WNW 05:00:45 10° SSW visible
10 Oct 9.3 04:18:55 10° NE 04:21:24 20° ESE 04:23:54 10° SSE visible
